Regional Weather Roundup
Issued by NWS Charleston, SC

Current Version | Previous Version | Text Only | Print | Product List | Glossary Off
Versions: 1 2 3 4 5 6 7 8 9 10 11 12 13 14 15 16 17 18 19 20 21 22 23 24 25 26 27 28 29 30 31 32 33 34 35 36 37 38 39 40 41 42 43 44 45 46 47 48 49 50

000
ASUS42 KCHS 210211
RWRCHS

REGIONAL WEATHER ROUNDUP
NATIONAL WEATHER SERVICE CHARLESTON SC
1000 PM EDT MON APR 20 2015

NOTE: "FAIR" INDICATES FEW OR NO CLOUDS BELOW 12,000 FEET WITH NO
SIGNIFICANT WEATHER AND/OR OBSTRUCTIONS TO VISIBILITY.

NOT ALL STATIONS ARE QUALITY CONTROLLED BY THE NATIONAL
WEATHER SERVICE. USE DATA WITH CAUTION...ESPECIALLY
DEWPOINT OBSERVATIONS.

SCZ027-030-031-034>040-042>050-210300-
...SOUTHEAST SOUTH CAROLINA...

CITY           SKY/WX    TMP DP  RH WIND       PRES   REMARKS
N CHARLESTON   CLOUDY    69  62  78 SW12      29.80R
WATERFRONT PRK   N/A     70 N/A N/A SW10        N/A
MOUNT PLEASANT FAIR      70  64  83 CALM      29.81R
PINOPOLIS      NOT AVBL
MONCKS CORNER  FAIR      68  64  88 S6        29.79R
SUMMERVILLE    FAIR      68  66  94 S5        29.79R
BEAUFORT MCAS  MOCLDY    69  59  70 SW13G18   29.82R
BEAUFORT ARPT  FAIR      70  61  73 SW8G16    29.82R
HILTON HEAD IS MOCLDY    70  59  68 SW9G18    29.84R
WALTERBORO     PTCLDY    66  61  82 SW9       29.80R
ALLENDALE      FAIR      66  63  88 CALM      29.79R

...SOUTHERN MIDLANDS AND PEE DEE...

CITY           SKY/WX    TMP DP  RH WIND       PRES   REMARKS
GEORGETOWN     NOT AVBL
KINGSTREE      NOT AVBL
ORANGEBURG     MOCLDY    66  62  87 S9        29.77R
BARNWELL       FAIR      66  63  88 S8        29.78R
AIKEN          FAIR      64  57  77 SW8       29.79R
MANNING        FAIR      66  63  88 S5        29.76R
COLUMBIA       PTCLDY    68  61  78 SW8       29.73R
SUMTER         PTCLDY    67  64  91 S9        29.72R
FLORENCE       PTCLDY    69  63  81 S15G22    29.73R
MYRTLE BEACH   PTCLDY    70  64  83 S15       29.80R
N MYRTLE BEACH CLOUDY    68  65  90 SW15      29.78R

$$

GAZ063-065-086>088-099>101-113>116-118-119-134>141-150-210300-
...SOUTHEAST GEORGIA...

CITY           SKY/WX    TMP DP  RH WIND       PRES   REMARKS
SAVANNAH ARPT  MOCLDY    68  57  68 SW10      29.83R
HUNTER AAF     CLOUDY    68  60  76 SW7       29.82R
FORT STEWART   PTCLDY    68  59  73 SW8       29.83R
STATESBORO       N/A     67  60  79 SW7       29.82R
SYLVANIA       PTCLDY    67  61  80 SW3       29.81R
CLAXTON        FAIR      66  61  82 SW5       29.83R

...CSRA...CENTRAL AND FAR SOUTHEAST GEORGIA...

CITY           SKY/WX    TMP DP  RH WIND       PRES   REMARKS
THOMSON        CLEAR     68  64  88 SW7       29.81R
AUGUSTA-BUSH   CLEAR     66  60  81 SW9       29.76R
AUGUSTA-DANIEL CLEAR     68  59  73 SW8       29.77R
SWAINSBORO     NOT AVBL
VIDALIA        MOCLDY    66  61  82 SW8       29.82R
EASTMAN        FAIR      68  68 100 SW6       29.85R
HAZLEHURST     FAIR      68  63  85 SW3       29.83R
ALMA           MOCLDY    65  61  87 S6        29.85R
WAYCROSS       PTCLDY    67  64  90 SW7       29.87R
JESUP          FAIR      68  63  83 SW5       29.86R
BAXLEY         FAIR      68  63  83 S7        29.85R
BRUNSWICK      MOCLDY    66  59  77 SW8       29.88R
SAINT SIMONS   MOCLDY    66  61  84 SW9       29.87R

$$

SCZ027-028-034-036>038-045-046-048>050-GAZ119-141-210300-
...LAKE AND SUPPLEMENTAL COASTAL OBSERVATIONS...

STATION/POSITION TIME  TEMP    WIND        PRES    WAVE   SWELL
                       AIR SEA DIR/SP/G            HT/PER HT/PER/DIR
                 (UTC) (F)     (DEG/KT/KT) (MB)    (FT/S) (FT/S/D)
UPR LAKE MARION  NOT AVBL
WINYAH BAY       NOT AVBL
LAKE MURRAY      0100   69     220/  6/  9 1005.4R
ACE BASIN NERRS  NOT AVBL
FORT PULASKI     0100   71 71  230/  9/ 13 1010.0R
SAPELO ISLAND    NOT AVBL

$$

ANZ835-935-AMZ111-154-330-350-352-354-370-450-454-472-210300-
...C-MAN AND BUOY OBSERVATIONS...

STATION/POSITION TIME  TEMP    WIND        PRES    WAVE   SWELL
                       AIR SEA DIR/SP/G            HT/PER HT/PER/DIR
                 (UTC) (F)     (DEG/KT/KT) (MB)    (FT/S) (FT/S/D)
BUOY 41004       0150   74 74  240/ 16/ 17 1008.8R   4/ 5   2/ 9
BUOY 41008       0150   69 68  230/ 12/ 14 1010.8R   3/ 4   2/100/ 9
FOLLY BEACH CMAN 0100   70     220/ 10/ 13 1008.8R
CAPERS NEARSHORE NOT AVBL
FRIPP NEARSHORE  NOT AVBL


STATION/POSITION TIME  TEMP    WIND        PRES    WAVE   SWELL
                       AIR SEA DIR/SP/G            HT/PER HT/PER/DIR
                 (UTC) (F)     (DEG/KT/KT) (MB)    (FT/S) (FT/S/D)
5E ST. MARYS GA  0121      70                N/A     2/ 9
FRYING PAN BUOY  0150   74 73  230/ 16/ 17 1009.4R   5/ 6   2/ 90/ 8
BUOY 41025       0150   75 75  200/ 21/ 25 1007.8R   6/ 7   2/310/14
CAPE LOOKOUT NC  0100   68     200/ 10/ 13 1007.8R
BUOY 41002       0150   74 73  240/ 14/ 17 1012.9R   4/ 7   3/ 50/ 7
BUOY 41010       0120   75 78  310/ 14/ 16 1013.7R
ST AUGUSTINE FL  0200   66 63  190/ 10/ 11 1013.0R


$$


USA.gov is the U.S. government's official web portal to all federal, state and local government web resources and services.